Regional Weather Roundup
Issued by NWS

Home | Current Version | Previous Version | Text Only | Print | Product List | Glossary On
Versions: 1 2 3 4 5 6 7 8 9 10 11 12 13 14 15 16 17 18 19 20 21 22 23 24 25 26 27 28 29 30 31 32 33 34 35 36 37 38 39 40 41 42 43 44 45 46 47 48 49 50
000
ASUS45 KBOI 272110
RWRID

IDAHO REGIONAL WEATHER ROUNDUP
NATIONAL WEATHER SERVICE BOISE ID
300 PM MDT TUE JUN 27 2017

NOTE: "FAIR" INDICATES FEW OR NO CLOUDS BELOW 12000 FEET
WITH NO SIGNIFICANT WEATHER AND/OR OBSTRUCTIONS TO VISIBILITY

IDZ012-014-272200-
SOUTHWEST IDAHO


CITY           SKY/WX    TMP DP  RH WIND       PRES   REMARKS
BOISE          SUNNY     86  46  24 W13G21    29.88F
CALDWELL       SUNNY     87  48  25 NW9       29.86F
MOUNTAIN HOME  MOSUNNY   87  45  22 NW12G18   29.88F
$$

IDZ016-017-272200-
SOUTHCENTRAL IDAHO


CITY           SKY/WX    TMP DP  RH WIND       PRES   REMARKS
BURLEY         SUNNY     81  42  25 W17G24    29.94F
JEROME         SUNNY     84  41  21 SW18G28   29.95F
TWIN FALLS     SUNNY     84  40  21 W17G24    29.96F
$$

IDZ019>023-272200-
SOUTHEAST IDAHO


CITY           SKY/WX    TMP DP  RH WIND       PRES   REMARKS
IDAHO FALLS    LGT RAIN  69  48  47 SW14G21   29.94F
POCATELLO      MOSUNNY   84  44  24 SW25      29.94F
REXBURG        PTSUNNY   75  51  43 SW16      29.93F
$$

IDZ006-010-011-018-031-032-272200-
CENTRAL IDAHO MOUNTAINS


CITY           SKY/WX    TMP DP  RH WIND       PRES   REMARKS
MCCALL         CLOUDY    71  45  39 NW6       29.96F
HAILEY         MOSUNNY   81  36  19 NW12      29.96F
STANLEY          N/A     72  35  25 VRB6      30.05F
SALMON         CLOUDY    75  54  46 SW6       29.87F
CHALLIS        PTSUNNY   77  40  26 MISG      29.91F
$$

IDZ002-004-006-007-026-272200-
NORTHERN IDAHO


CITY           SKY/WX    TMP DP  RH WIND       PRES   REMARKS
LEWISTON       SUNNY     85  42  22 W9        29.85F
LOWELL           N/A     88  46  23 CALM      29.82F
COEUR D`ALENE  PTSUNNY   77  48  35 SW7       29.89S
MULLAN PASS    MOSUNNY   63  42  46 VRB6      30.02R
$$



USA.gov is the U.S. government's official web portal to all federal, state and local government web resources and services.